Location: Unspecified
(49.2170°N, 0.0000°E)
Time: 14:07:55
(UTC+00:00)

Vanguard 3 - Pass Details

Date: 30 January 2021
Orbit: 508 x 3261 km, 33.3° (Epoch: 28 February)

Event Time Altitude Azimuth Distance (km) Brightness Sun altitude
Rises 03:20:35 0° 232° (SW) 3,090 - -40.9°
Reaches altitude 10° 03:23:10 10° 214° (SW) 2,424 - -40.5°
Maximum altitude 03:27:21 21° 167° (SSE) 2,200 - -39.9°
Exits shadow 03:29:34 18° 145° (SE) 2,573 9.7 -39.6°
Drops below altitude 10° 03:33:17 10° 123° (ESE) 3,583 10.8 -39.0°
Sets 03:38:12 0° 110° (ESE) 5,133 11.8 -38.2°
